When you browse on this site, cookies collect data to enhance your experience and personalize the content and advertising you see.
Visit our Privacy Policy to learn more. By continuing to use the site, you agree to this use of cookies and data.
  • In Romania
  • List of Countries
  • For 7 days
  • Water Temperature
  • Satellite Maps
  • Weather Map
  • Weather Widgets
  • user-avatar
    Login

    Hourly Weather Lowech

    Today, 26 May, Sunday

    Time Temperature Precipitation Wind Pressure Humidity
    00:00 +14°C° 0 mm 3 mps 735 mmHg 82%
    01:00 +14°C° 0 mm 3 mps 736 mmHg 81%
    02:00 +13°C° 0 mm 3 mps 736 mmHg 81%
    03:00 +14°C° 0 mm 2 mps 736 mmHg 81%
    04:00 +14°C° 0 mm 2 mps 736 mmHg 80%
    05:00 +14°C° 0 mm 2 mps 736 mmHg 80%
    06:00 +16°C° 0 mm 2 mps 736 mmHg 75%
    07:00 +18°C° 0 mm 2 mps 736 mmHg 70%
    08:00 +20°C° 0 mm 2 mps 737 mmHg 64%
    09:00 +21°C° 0 mm 2 mps 737 mmHg 61%
    10:00 +23°C° 0 mm 2 mps 737 mmHg 57%
    11:00 +24°C° 0 mm 2 mps 737 mmHg 54%
    12:00 +25°C° 0 mm 1 mps 737 mmHg 52%
    13:00 +26°C° 0 mm 1 mps 737 mmHg 51%
    14:00 +27°C° 0 mm 1 mps 736 mmHg 50%
    15:00 +26°C° 0 mm 1 mps 736 mmHg 52%
    16:00 +26°C° 0 mm 1 mps 736 mmHg 54%
    17:00 +26°C° 0 mm 1 mps 736 mmHg 56%
    18:00 +24°C° 0 mm 1 mps 736 mmHg 62%
    19:00 +22°C° 0 mm 1 mps 736 mmHg 67%
    20:00 +19°C° 0 mm 2 mps 736 mmHg 73%
    21:00 +19°C° 0 mm 2 mps 736 mmHg 74%
    22:00 +18°C° 0 mm 2 mps 736 mmHg 75%
    23:00 +17°C° 0 mm 2 mps 737 mmHg 75%

    Tomorrow, 27 May, Monday

    Time Temperature Precipitation Wind Pressure Humidity
    00:00 +17°C° 0 mm 2 mps 737 mmHg 76%
    01:00 +17°C° 0 mm 2 mps 737 mmHg 76%
    02:00 +17°C° 0 mm 2 mps 736 mmHg 77%
    03:00 +17°C° 0 mm 2 mps 736 mmHg 78%
    04:00 +16°C° 0 mm 2 mps 736 mmHg 78%
    05:00 +16°C° 0 mm 1 mps 736 mmHg 79%
    06:00 +19°C° 0 mm 1 mps 736 mmHg 75%
    07:00 +21°C° 0 mm 1 mps 736 mmHg 71%
    08:00 +23°C° 0 mm 1 mps 737 mmHg 66%
    09:00 +25°C° 0 mm 1 mps 737 mmHg 61%
    10:00 +26°C° 0 mm 2 mps 736 mmHg 56%
    11:00 +28°C° 0 mm 2 mps 736 mmHg 50%
    12:00 +28°C° 0 mm 2 mps 736 mmHg 49%
    13:00 +29°C° 0 mm 3 mps 736 mmHg 47%
    14:00 +29°C° 0 mm 3 mps 735 mmHg 46%
    15:00 +29°C° 0 mm 3 mps 735 mmHg 51%
    16:00 +29°C° 0 mm 3 mps 735 mmHg 55%
    17:00 +28°C° 0 mm 3 mps 735 mmHg 60%
    18:00 +26°C° 0 mm 3 mps 735 mmHg 64%
    19:00 +24°C° 0 mm 3 mps 734 mmHg 67%
    20:00 +22°C° 0 mm 3 mps 734 mmHg 70%
    21:00 +21°C° 0 mm 3 mps 735 mmHg 68%
    22:00 +21°C° 0 mm 3 mps 735 mmHg 65%
    23:00 +21°C° 0 mm 3 mps 735 mmHg 62%

    Day after tomorrow, 28 May, Tuesday

    Time Temperature Precipitation Wind Pressure Humidity
    00:00 +20°C° 0 mm 2 mps 735 mmHg 65%
    01:00 +19°C° 0 mm 2 mps 734 mmHg 68%
    02:00 +19°C° 0 mm 2 mps 734 mmHg 71%
    03:00 +18°C° 0 mm 2 mps 734 mmHg 73%
    04:00 +17°C° 0 mm 2 mps 733 mmHg 75%
    05:00 +17°C° 0 mm 2 mps 733 mmHg 77%
    06:00 +19°C° 0 mm 1 mps 733 mmHg 72%
    07:00 +21°C° 0 mm 1 mps 733 mmHg 68%
    08:00 +23°C° 0 mm 1 mps 733 mmHg 63%
    09:00 +25°C° 0 mm 1 mps 733 mmHg 57%
    10:00 +27°C° 0 mm 1 mps 733 mmHg 51%
    11:00 +28°C° 0 mm 1 mps 732 mmHg 44%
    12:00 +29°C° 0 mm 2 mps 732 mmHg 43%
    13:00 +30°C° 0 mm 3 mps 732 mmHg 42%
    14:00 +31°C° 0 mm 3 mps 731 mmHg 41%
    15:00 +30°C° 0 mm 3 mps 731 mmHg 44%
    16:00 +30°C° 0 mm 3 mps 730 mmHg 48%
    17:00 +30°C° 0 mm 2 mps 730 mmHg 51%
    18:00 +28°C° 0 mm 3 mps 730 mmHg 55%
    19:00 +25°C° 0 mm 3 mps 730 mmHg 58%
    20:00 +22°C° 0 mm 3 mps 730 mmHg 62%
    21:00 +21°C° 0 mm 3 mps 730 mmHg 60%
    22:00 +20°C° 0 mm 3 mps 730 mmHg 59%
    23:00 +20°C° 0 mm 3 mps 731 mmHg 57%

    29 May, Wednesday

    Time Temperature Precipitation Wind Pressure Humidity
    00:00 +19°C° 0 mm 3 mps 731 mmHg 60%
    01:00 +18°C° 0 mm 3 mps 731 mmHg 62%
    02:00 +18°C° 0 mm 2 mps 731 mmHg 65%
    03:00 +17°C° 0 mm 2 mps 731 mmHg 66%
    04:00 +17°C° 0 mm 2 mps 731 mmHg 67%
    05:00 +18°C° 0 mm 1 mps 732 mmHg 68%
    06:00 +20°C° 0 mm 1 mps 732 mmHg 66%
    07:00 +22°C° 0 mm 1 mps 732 mmHg 63%
    08:00 +22°C° 0 mm 0 mps 733 mmHg 61%
    09:00 +23°C° 0 mm 0 mps 733 mmHg 59%
    10:00 +26°C° 0 mm 1 mps 733 mmHg 57%
    11:00 +27°C° 0 mm 1 mps 733 mmHg 55%
    12:00 +27°C° 0.5 mm 1 mps 733 mmHg 56%
    13:00 +27°C° 0.5 mm 1 mps 732 mmHg 56%
    14:00 +28°C° 0.5 mm 1 mps 732 mmHg 56%
    15:00 +28°C° 0.3 mm 1 mps 732 mmHg 57%
    16:00 +28°C° 0.3 mm 1 mps 732 mmHg 58%
    17:00 +28°C° 0.3 mm 1 mps 732 mmHg 58%
    18:00 +26°C° 0.1 mm 1 mps 732 mmHg 63%
    19:00 +24°C° 0.1 mm 1 mps 732 mmHg 69%
    20:00 +22°C° 0.1 mm 1 mps 733 mmHg 74%
    21:00 +21°C° 0.2 mm 1 mps 733 mmHg 75%
    22:00 +20°C° 0.2 mm 1 mps 733 mmHg 77%
    23:00 +20°C° 0.2 mm 1 mps 734 mmHg 78%

    30 May, Thursday

    Time Temperature Precipitation Wind Pressure Humidity
    00:00 +19°C° 0.2 mm 1 mps 734 mmHg 80%
    01:00 +19°C° 0.2 mm 1 mps 734 mmHg 83%
    02:00 +17°C° 0.2 mm 2 mps 734 mmHg 85%
    03:00 +17°C° 0 mm 2 mps 734 mmHg 86%
    04:00 +17°C° 0 mm 2 mps 734 mmHg 86%
    05:00 +17°C° 0 mm 2 mps 734 mmHg 86%
    06:00 +19°C° 0 mm 2 mps 735 mmHg 80%
    07:00 +20°C° 0 mm 2 mps 735 mmHg 73%
    08:00 +23°C° 0 mm 2 mps 735 mmHg 67%
    09:00 +24°C° 0 mm 2 mps 735 mmHg 63%
    10:00 +25°C° 0 mm 2 mps 735 mmHg 59%
    11:00 +26°C° 0 mm 2 mps 735 mmHg 56%
    12:00 +26°C° 0.1 mm 2 mps 735 mmHg 55%
    13:00 +27°C° 0.1 mm 2 mps 735 mmHg 55%
    14:00 +27°C° 0.1 mm 2 mps 735 mmHg 54%
    15:00 +27°C° 0.8 mm 2 mps 735 mmHg 58%
    16:00 +26°C° 0.8 mm 2 mps 735 mmHg 62%
    17:00 +26°C° 0.8 mm 2 mps 734 mmHg 66%
    18:00 +24°C° 0.8 mm 2 mps 735 mmHg 73%
    19:00 +21°C° 0.8 mm 2 mps 735 mmHg 79%
    20:00 +19°C° 0.8 mm 2 mps 735 mmHg 86%
    21:00 +18°C° 0.5 mm 2 mps 735 mmHg 88%
    22:00 +18°C° 0.5 mm 2 mps 736 mmHg 90%
    23:00 +17°C° 0.5 mm 2 mps 736 mmHg 92%

    31 May, Friday

    Time Temperature Precipitation Wind Pressure Humidity
    00:00 +17°C° 0.7 mm 2 mps 736 mmHg 92%
    01:00 +16°C° 0.7 mm 3 mps 736 mmHg 92%
    02:00 +16°C° 0.7 mm 3 mps 736 mmHg 92%
    03:00 +16°C° 0.2 mm 3 mps 736 mmHg 91%
    04:00 +14°C° 0.2 mm 3 mps 736 mmHg 91%
    05:00 +14°C° 0.2 mm 3 mps 737 mmHg 91%
    06:00 +14°C° 0.2 mm 4 mps 737 mmHg 89%
    07:00 +14°C° 0.2 mm 4 mps 737 mmHg 88%
    08:00 +14°C° 0.2 mm 5 mps 737 mmHg 87%
    09:00 +15°C° 0.3 mm 4 mps 737 mmHg 85%
    10:00 +15°C° 0.3 mm 4 mps 738 mmHg 84%
    11:00 +15°C° 0.3 mm 4 mps 738 mmHg 83%
    12:00 +16°C° 0.4 mm 3 mps 738 mmHg 82%
    13:00 +16°C° 0.4 mm 3 mps 738 mmHg 82%
    14:00 +17°C° 0.4 mm 3 mps 738 mmHg 81%
    15:00 +17°C° 0.4 mm 2 mps 738 mmHg 83%
    16:00 +17°C° 0.4 mm 2 mps 738 mmHg 85%
    17:00 +17°C° 0.4 mm 2 mps 738 mmHg 87%
    18:00 +16°C° 0.4 mm 2 mps 738 mmHg 90%
    19:00 +16°C° 0.4 mm 2 mps 738 mmHg 92%
    20:00 +15°C° 0.4 mm 2 mps 738 mmHg 95%
    21:00 +15°C° 0.5 mm 1 mps 738 mmHg 96%
    22:00 +15°C° 0.5 mm 1 mps 738 mmHg 97%
    23:00 +15°C° 0.5 mm 1 mps 738 mmHg 98%
    Show more